Indianapolis, IN

1:44 PM EDT on October 20, 2019 (GMT -0400)
Indianapolis International

Weather History for KIND - June, 2019

Change the Weather History Date:

Tuesday, June 4, 2019

  Actual Average Record
Temperature  
Mean Temperature 70 °F 69 °F  
Max Temperature 81 °F 79 °F 95 °F (2011)
Min Temperature 59 °F 59 °F 43 °F (1946)
Degree Days  
Heating Degree Days 0 1  
Month to date heating degree days 0 6  
Since 1 June heating degree days 0 6  
Since 1 July heating degree days 5376 5368  
Cooling Degree Days 5 5  
Month to date cooling degree days 12 20  
Year to date cooling degree days 123 104  
Since 1 June cooling degree days 12 20  
Growing Degree Days 20 (Base 50)    
Moisture  
Dew Point 53 °F    
Average Humidity 60    
Maximum Humidity 84    
Minimum Humidity 35    
Precipitation  
Precipitation 0.00 in 0.14 in 2.87 in (1885)
Month to date precipitation 0.00 0.57  
Year to date precipitation 21.64 17.97  
Snow  
Snow 0.00 in 0.00 in 0.00 in ()
Month to date snowfall 0.0 0.0  
Since 1 June snowfall 0.0 0.0  
Since 1 July snowfall 19.4 25.9  
Snow Depth 0.00 in    
Sea Level Pressure  
Sea Level Pressure 30.00 in    
Wind  
Wind Speed 11 mph (South)    
Max Wind Speed 21 mph    
Max Gust Speed 32 mph    
Visibility 10 miles    
Events      
T = Trace of Precipitation, MM = Missing Value Source: NWS Daily Summary

Daily Weather History Graph

Daily Weather History Graph

Search for Another Location

Airport or City:

Astronomy

Jun. 04, 2019 Rise Set
Actual Time 6:18 AM EDT 9:09 PM EDT
Civil Twilight 5:46 AM EDT 9:41 PM EDT
Nautical Twilight 5:05 AM EDT 10:21 PM EDT
Astronomical Twilight 4:19 AM EDT 11:08 PM EDT
Moon 7:26 AM EDT (6/4) 10:36 PM EDT (6/4)
Length of Visible Light 15h 55m
Length of Day
14h 50m
New Moon, 2% of the Moon is Illuminated
Jun 4
New Moon
Jun 10
First Quarter
Jun 17
Full
Jun 25
Last Quarter
Jul 2
New

Hourly Weather History & Observations

Time (EDT) Temp. Dew Point Humidity Pressure Visibility Wind Dir Wind Speed Gust Speed Precip Events Conditions
12:54 AM 62.1 °F 53.1 °F 72% 30.09 in 10.0 mi WSW 4.6 mph - N/A   Mostly Cloudy
1:54 AM 61.0 °F 53.1 °F 75% 30.09 in 10.0 mi West 5.8 mph - N/A   Mostly Cloudy
2:54 AM 60.1 °F 53.1 °F 78% 30.09 in 10.0 mi WSW 5.8 mph - N/A   Mostly Cloudy
3:54 AM 59.0 °F 52.0 °F 78% 30.10 in 10.0 mi SW 5.8 mph - N/A   Mostly Cloudy
4:54 AM 62.1 °F 52.0 °F 70% 30.09 in 10.0 mi SW 3.5 mph - N/A   Overcast
5:54 AM 60.1 °F 54.0 °F 80% 30.08 in 10.0 mi SSE 4.6 mph - N/A   Overcast
6:54 AM 61.0 °F 55.0 °F 81% 30.10 in 10.0 mi ESE 4.6 mph - N/A   Overcast
7:54 AM 61.0 °F 54.0 °F 78% 30.09 in 10.0 mi SSE 8.1 mph - N/A   Mostly Cloudy
8:54 AM 66.9 °F 53.1 °F 61% 30.08 in 10.0 mi SSE 6.9 mph - N/A   Mostly Cloudy
9:54 AM 69.1 °F 53.1 °F 57% 30.07 in 10.0 mi South 10.4 mph - N/A   Mostly Cloudy
10:54 AM 73.9 °F 53.1 °F 48% 30.06 in 10.0 mi South 10.4 mph - N/A   Mostly Cloudy
11:54 AM 75.0 °F 51.1 °F 43% 30.05 in 10.0 mi South 13.8 mph 26.5 mph N/A   Mostly Cloudy
12:54 PM 78.1 °F 51.1 °F 39% 30.03 in 10.0 mi South 17.3 mph 24.2 mph N/A   Mostly Cloudy
1:54 PM 78.1 °F 53.1 °F 42% 30.00 in 10.0 mi South 16.1 mph 23.0 mph N/A   Mostly Cloudy
2:54 PM 79.0 °F 53.1 °F 40% 29.99 in 10.0 mi SSW 16.1 mph 32.2 mph N/A   Mostly Cloudy
3:54 PM 80.1 °F 52.0 °F 38% 29.96 in 10.0 mi South 17.3 mph 24.2 mph N/A   Mostly Cloudy
4:54 PM 79.0 °F 50.0 °F 36% 29.94 in 10.0 mi South 18.4 mph 23.0 mph N/A   Mostly Cloudy
5:54 PM 79.0 °F 48.0 °F 34% 29.91 in 10.0 mi South 17.3 mph 23.0 mph N/A   Mostly Cloudy
6:54 PM 77.0 °F 48.0 °F 36% 29.89 in 10.0 mi SSW 15.0 mph - N/A   Mostly Cloudy
7:54 PM 75.9 °F 51.1 °F 42% 29.88 in 10.0 mi South 12.7 mph - N/A   Mostly Cloudy
8:54 PM 73.0 °F 54.0 °F 51% 29.85 in 10.0 mi SSE 6.9 mph - N/A   Mostly Cloudy
9:54 PM 73.0 °F 54.0 °F 51% 29.85 in 10.0 mi South 11.5 mph - N/A   Mostly Cloudy
10:54 PM 72.0 °F 55.0 °F 55% 29.86 in 10.0 mi South 8.1 mph - N/A   Mostly Cloudy
11:54 PM 71.1 °F 57.0 °F 61% 29.86 in 10.0 mi South 10.4 mph - N/A   Mostly Cloudy